Change the Weather History Date:

Wednesday, August 7, 2013

  Actual Average (KOTM) Record (KOTM)
Temperature  
Mean Temperature 71 °F 74 °F  
Max Temperature 81 °F 85 °F 107 °F (1934)
Min Temperature 62 °F 64 °F 49 °F (1989)
Degree Days  
Heating Degree Days 0 0  
Month to date heating degree days 0  
Since 1 June heating degree days 23  
Since 1 July heating degree days 2  
Cooling Degree Days 6 9  
Month to date cooling degree days 65  
Year to date cooling degree days 644  
Since 1 June cooling degree days 580  
Growing Degree Days 21 (Base 50)    
Moisture  
Dew Point 65 °F    
Average Humidity 79    
Maximum Humidity 94    
Minimum Humidity 58    
Precipitation  
Precipitation 0.55 in 0.15 in 1.48 in (1977)
Month to date precipitation 1.00  
Year to date precipitation 23.09  
Sea Level Pressure  
Sea Level Pressure 29.90 in    
Wind  
Wind Speed 4 mph (NNW)    
Max Wind Speed 14 mph    
Max Gust Speed 17 mph    
Visibility 10 miles    
Events Rain    
T = Trace of Precipitation, MM = Missing Value Source: NWS Daily Summary

Daily Weather History Graph

Daily Weather History Graph

Search for Another Location

Airport or City:

Trip Planner

Search our weather history database for the weather conditions in past years. The results will help you decide how hot, cold, wet, or windy it might be!

Date:

Astronomy

Aug. 07, 2013 Rise Set
Actual Time 6:11 AM CDT 8:19 PM CDT
Civil Twilight 5:41 AM CDT 8:49 PM CDT
Nautical Twilight 5:03 AM CDT 9:26 PM CDT
Astronomical Twilight 4:22 AM CDT 10:07 PM CDT
Moon 7:01 AM CDT (8/7) 8:25 PM CDT (8/7)
Length of Visible Light 15h 08m
Length of Day
14h 07m
New Moon, 1% of the Moon is Illuminated
Aug 7
New Moon
Aug 14
First Quarter
Aug 20
Full
Aug 28
Last Quarter
Sep 5
New

Hourly Weather History & Observations

Time (CDT) Temp. Heat Index Dew Point Humidity Pressure Visibility Wind Dir Wind Speed Gust Speed Precip Events Conditions
12:15 AM 68.0 °F - 64.9 °F 90% 29.83 in 10.0 mi Calm Calm - N/A   Clear
12:35 AM 68.2 °F - 64.6 °F 88% 29.83 in 10.0 mi Calm Calm - N/A   Clear
12:55 AM 68.5 °F - 64.8 °F 88% 29.84 in 10.0 mi West 3.5 mph - N/A Rain Light Rain
1:15 AM 68.9 °F - 65.7 °F 89% 29.85 in 10.0 mi Calm Calm - N/A Rain Light Rain
1:35 AM 68.9 °F - 66.4 °F 92% 29.84 in 10.0 mi Calm Calm - 0.02 in Rain Rain
1:55 AM 69.3 °F - 66.9 °F 92% 29.86 in 5.0 mi West 10.4 mph - 0.12 in Rain Heavy Rain
2:15 AM 71.8 °F - 67.1 °F 85% 29.82 in 10.0 mi Calm Calm - 0.07 in   Overcast
2:35 AM 69.8 °F - 66.4 °F 89% 29.83 in 10.0 mi North 6.9 mph - 0.09 in   Overcast
2:55 AM 68.2 °F - 64.6 °F 88% 29.85 in 1.0 mi NNE 8.1 mph - 0.43 in Rain Heavy Rain
3:15 AM 66.6 °F - 63.0 °F 88% 29.84 in 10.0 mi East 8.1 mph - N/A Rain Light Rain
3:35 AM 66.2 °F - 62.2 °F 87% 29.82 in 10.0 mi SE 6.9 mph - N/A   Overcast
3:55 AM 66.0 °F - 63.0 °F 90% 29.82 in 10.0 mi SE 3.5 mph - N/A   Scattered Clouds
4:15 AM 66.0 °F - 63.5 °F 92% 29.81 in 10.0 mi Calm Calm - N/A   Clear
4:35 AM 66.2 °F - 63.7 °F 92% 29.81 in 10.0 mi SSE 3.5 mph - N/A   Clear
4:55 AM 66.0 °F - 63.7 °F 92% 29.81 in 10.0 mi Calm Calm - N/A   Clear
5:15 AM 65.8 °F - 63.7 °F 93% 29.80 in 10.0 mi Calm Calm - N/A   Clear
5:35 AM 65.5 °F - 63.5 °F 93% 29.82 in 10.0 mi SW 3.5 mph - N/A   Clear
5:55 AM 65.3 °F - 63.5 °F 94% 29.83 in 10.0 mi SW 4.6 mph - N/A   Clear
6:15 AM 65.5 °F - 63.5 °F 93% 29.84 in 10.0 mi Calm Calm - N/A   Clear
6:35 AM 65.7 °F - 63.7 °F 93% 29.85 in 7.0 mi Calm Calm - N/A   Clear
6:55 AM 66.2 °F - 64.0 °F 93% 29.85 in 7.0 mi Calm Calm - N/A   Clear
7:15 AM 67.1 °F - 65.1 °F 93% 29.85 in 7.0 mi WSW 3.5 mph - N/A   Clear
7:35 AM 68.0 °F - 65.8 °F 93% 29.86 in 10.0 mi SW 4.6 mph - N/A   Clear
7:55 AM 68.5 °F - 66.4 °F 93% 29.87 in 10.0 mi West 3.5 mph - N/A   Clear
8:15 AM 70.3 °F - 68.0 °F 92% 29.87 in 10.0 mi West 5.8 mph - N/A   Clear
8:35 AM 72.1 °F - 68.9 °F 89% 29.87 in 10.0 mi West 4.6 mph - N/A   Clear
8:55 AM 73.4 °F - 69.3 °F 87% 29.87 in 10.0 mi WNW 6.9 mph - N/A   Clear
9:15 AM 74.5 °F - 69.8 °F 85% 29.88 in 10.0 mi WNW 5.8 mph - N/A   Clear
9:35 AM 75.9 °F - 69.8 °F 81% 29.89 in 10.0 mi NW 5.8 mph - N/A   Clear
9:55 AM 76.3 °F - 69.1 °F 78% 29.90 in 10.0 mi NNW 5.8 mph - N/A   Clear
10:15 AM 76.5 °F - 68.7 °F 77% 29.90 in 10.0 mi NNW 8.1 mph - N/A   Clear
10:35 AM 77.0 °F - 69.4 °F 77% 29.90 in 10.0 mi NNW 4.6 mph - N/A   Clear
10:55 AM 78.6 °F - 69.3 °F 73% 29.90 in 10.0 mi NNW 6.9 mph - N/A   Clear
11:15 AM 79.3 °F - 69.3 °F 71% 29.90 in 10.0 mi NNW 9.2 mph - N/A   Clear
11:35 AM 79.7 °F - 69.3 °F 70% 29.91 in 10.0 mi NNW 8.1 mph - N/A   Clear
11:55 AM 78.8 °F - 69.1 °F 72% 29.90 in 10.0 mi NNW 9.2 mph - N/A   Clear
12:15 PM 80.8 °F 83.6 °F 68.5 °F 66% 29.90 in 10.0 mi North 8.1 mph - N/A   Clear
12:35 PM 80.6 °F 82.8 °F 66.6 °F 62% 29.90 in 10.0 mi NNW 11.5 mph - N/A   Clear
12:55 PM 80.6 °F 83.5 °F 68.7 °F 67% 29.91 in 10.0 mi NNW 10.4 mph - N/A   Clear
1:15 PM 79.7 °F - 67.6 °F 66% 29.91 in 10.0 mi NNW 11.5 mph - N/A   Clear
1:35 PM 80.2 °F 82.6 °F 67.3 °F 64% 29.92 in 10.0 mi NNW 13.8 mph - N/A   Clear
1:55 PM 79.3 °F - 65.8 °F 63% 29.92 in 10.0 mi NNW 6.9 mph 17.3 mph N/A   Clear
2:15 PM 78.8 °F - 65.1 °F 63% 29.92 in 10.0 mi North 6.9 mph - N/A   Clear
2:35 PM 78.8 °F - 65.3 °F 63% 29.92 in 10.0 mi North 9.2 mph - N/A   Clear
2:55 PM 79.5 °F - 64.2 °F 59% 29.92 in 10.0 mi NNW 10.4 mph - N/A   Clear
3:15 PM 79.5 °F - 64.8 °F 60% 29.92 in 10.0 mi North 10.4 mph - N/A   Scattered Clouds
3:35 PM 79.3 °F - 63.3 °F 58% 29.92 in 10.0 mi North 9.2 mph 16.1 mph N/A   Scattered Clouds
3:55 PM 78.6 °F - 63.5 °F 60% 29.92 in 10.0 mi NNW 10.4 mph - N/A   Clear
4:15 PM 79.2 °F - 63.9 °F 59% 29.92 in 10.0 mi North 9.2 mph 16.1 mph N/A   Clear
4:35 PM 78.3 °F - 63.3 °F 60% 29.92 in 10.0 mi North 8.1 mph - N/A   Clear
4:55 PM 78.8 °F - 63.1 °F 59% 29.92 in 10.0 mi North 11.5 mph - N/A   Clear
5:15 PM 78.4 °F - 63.1 °F 59% 29.93 in 10.0 mi North 6.9 mph - N/A   Clear
5:35 PM 77.5 °F - 63.5 °F 62% 29.93 in 10.0 mi North 6.9 mph - N/A   Clear
5:55 PM 77.9 °F - 63.5 °F 61% 29.93 in 10.0 mi North 8.1 mph - N/A   Clear
6:15 PM 77.0 °F - 63.3 °F 63% 29.94 in 10.0 mi North 9.2 mph - N/A   Clear
6:35 PM 76.5 °F - 62.4 °F 62% 29.94 in 10.0 mi North 6.9 mph - N/A   Scattered Clouds
6:55 PM 75.6 °F - 62.1 °F 63% 29.95 in 10.0 mi North 8.1 mph - N/A   Clear
7:15 PM 74.7 °F - 62.1 °F 65% 29.96 in 10.0 mi North 6.9 mph - N/A   Clear
7:35 PM 73.2 °F - 62.2 °F 68% 29.97 in 10.0 mi NNE 5.8 mph - N/A   Clear
7:55 PM 71.4 °F - 62.2 °F 73% 29.97 in 10.0 mi North 4.6 mph - N/A   Clear
8:15 PM 69.1 °F - 62.8 °F 80% 29.97 in 10.0 mi NNE 3.5 mph - N/A   Clear
8:35 PM 67.5 °F - 62.8 °F 85% 29.97 in 10.0 mi NE 3.5 mph - N/A   Clear
8:55 PM 66.4 °F - 62.4 °F 87% 29.97 in 10.0 mi North 3.5 mph - N/A   Clear
9:15 PM 65.8 °F - 61.9 °F 87% 29.98 in 10.0 mi North 4.6 mph - N/A   Clear
9:35 PM 65.5 °F - 61.7 °F 88% 29.99 in 10.0 mi North 4.6 mph - N/A   Clear
9:55 PM 65.3 °F - 61.7 °F 88% 29.99 in 10.0 mi North 4.6 mph - N/A   Clear
10:15 PM 64.6 °F - 61.0 °F 88% 30.00 in 10.0 mi North 3.5 mph - N/A   Clear
10:35 PM 64.2 °F - 60.8 °F 89% 30.00 in 10.0 mi North 3.5 mph - N/A   Clear
10:55 PM 63.7 °F - 60.6 °F 90% 30.00 in 10.0 mi North 4.6 mph - N/A   Clear
11:15 PM 63.5 °F - 60.4 °F 90% 30.01 in 10.0 mi NNW 3.5 mph - N/A   Clear
11:35 PM 62.6 °F - 59.9 °F 91% 30.01 in 10.0 mi North 4.6 mph - N/A   Clear
11:55 PM 62.2 °F - 59.5 °F 91% 30.00 in 10.0 mi North 4.6 mph - N/A   Clear